Temperature
9 9 8 8 8 9 9 9 9 10 10 10 10 10 11 11 11 11 11 11 11 12 12 12 13 13 13 14 14 14 14 15 15 16 15 14 14 14 14 15 15 15 16
8 8 8 8 8 8 8 8 8 8 9 9 10 10 10 11 11 11 11 11 11 11 11 11 11 12 12 13 13 13 14 14 14 15 14 14 14 14 14 14 14 14 15
8 7 7 7 7 7 7 7 7 7 8 8 9 9 10 10 10 11 11 11 10 10 10 11 11 11 11 12 12 13 13 13 13 14 14 14 13 13 13 13 13 13 13
7 7 6 6 6 6 6 6 6 6 7 7 8 8 9 9 10 10 10 10 10 10 10 10 10 10 10 11 11 12 12 13 13 13 14 14 13 13 13 12 12 12 12
6 6 6 6 6 6 6 6 6 6 6 6 7 7 8 9 9 10 10 10 10 10 10 10 10 10 10 10 10 11 11 12 13 13 13 13 13 13 12 12 12 12 12
6 6 6 6 6 6 6 5 5 5 5 6 6 6 7 8 9 9 10 10 10 10 10 10 10 10 10 10 10 10 10 11 12 12 13 13 13 13 12 12 12 11 11
6 6 6 6 6 5 5 5 5 5 5 5 5 6 6 7 8 9 9 9 10 10 9 9 10 10 9 10 10 10 10 10 11 11 12 13 13 13 12 12 12 12 11
6 6 6 5 5 5 5 5 5 5 4 4 5 5 5 6 7 8 9 9 9 9 9 9 9 10 9 9 9 10 10 10 11 11 12 12 13 13 13 13 12 11 11
6 6 5 5 5 5 5 5 5 4 4 4 4 4 5 6 6 7 8 8 8 9 9 9 9 9 9 9 9 9 10 10 10 11 11 12 12 12 12 12 11 11 10
6 5 5 5 5 5 5 5 5 4 4 4 4 4 5 5 6 7 7 8 8 8 8 9 9 9 9 9 9 9 10 10 10 10 11 11 12 12 12 12 12 11 11
5 5 5 5 5 5 5 5 5 4 4 4 4 4 5 5 6 6 7 7 8 8 9 9 9 9 9 9 9 9 9 10 10 10 11 11 12 12 11 11 11 11 12
5 5 5 5 5 5 5 5 5 4 4 4 4 4 5 5 5 6 7 7 7 8 8 9 9 9 9 9 9 9 9 9 9 10 10 11 11 11 11 11 11 11 11
5 5 5 5 5 5 5 5 5 5 4 4 4 4 5 5 5 6 6 7 7 7 8 8 8 8 8 9 9 9 9 9 9 10 10 11 11 11 11 11 11 11 10
5 5 5 5 5 5 5 5 5 5 4 4 4 4 5 5 5 6 6 6 7 7 7 7 8 8 8 8 9 9 9 9 9 10 10 11 11 11 10 10 10 10 9
6 5 5 6 6 5 5 5 5 5 4 4 4 4 5 5 5 6 6 6 7 7 7 7 8 8 8 8 9 9 9 9 9 10 10 10 11 10 10 10 10 10 9
6 6 6 6 6 6 6 6 6 5 5 5 5 5 5 5 5 5 6 6 7 7 7 7 8 8 8 9 9 9 9 9 9 9 10 10 10 10 10 10 9 9 9
6 6 6 6 6 6 6 6 6 6 5 5 5 5 5 5 5 5 6 6 6 7 7 7 8 8 8 9 9 9 9 9 9 9 10 10 10 10 10 9 9 9 9
6 6 6 6 7 7 7 7 7 6 6 6 5 5 5 5 5 5 6 6 6 6 7 7 8 8 8 8 8 8 8 8 9 9 9 10 10 9 9 9 9 9 9
6 6 6 6 7 7 7 7 7 7 6 6 6 5 6 6 6 6 6 6 6 7 7 8 8 8 8 8 8 8 8 8 8 9 9 9 9 9 9 9 9 10 10
6 6 6 7 7 7 7 7 7 7 7 6 6 6 6 6 6 6 6 6 6 7 7 7 8 8 8 8 8 8 8 8 8 8 9 9 9 9 9 9 9 10 10
6 7 7 7 7 8 7 7 7 7 7 6 6 6 6 6 6 6 6 6 7 7 7 7 8 8 8 8 7 7 7 8 8 8 8 9 9 9 9 10 10 10 11
6 7 7 7 7 7 7 7 7 7 7 6 6 6 6 6 7 7 7 7 7 7 7 7 8 8 8 7 7 7 7 7 8 8 8 9 9 9 10 10 10 11 11
6 7 7 7 7 7 7 7 7 7 7 7 7 7 7 7 7 7 7 7 7 7 7 7 7 7 7 7 7 7 7 7 8 8 8 9 9 10 10 10 10 11 11
6 6 7 7 7 7 7 7 7 7 7 7 7 7 7 7 7 7 7 7 7 7 7 7 7 7 7 7 7 7 7 8 8 8 9 9 10 10 10 10 11 11 11
6 6 6 7 7 7 8 7 7 7 7 7 7 7 7 7 7 7 7 7 7 7 7 7 7 7 7 7 7 7 7 8 8 9 9 10 10 10 10 10 10 10 11
6 6 6 7 7 7 8 8 8 8 8 7 7 7 7 8 8 8 8 7 7 7 7 7 7 7 7 7 7 7 8 8 9 9 10 10 10 10 10 10 10 10 10
Wind_Speed
17 17 17 17 17 16 16 16 15 16 16 16 16 16 15 14 12 10 10 9 9 9 8 10 12 13 10 10 11 10 10 9 8 6 6 5 4 4 5 6 6 7 10
18 18 18 18 17 17 17 17 16 16 16 17 17 17 17 17 15 14 13 11 11 11 10 9 10 9 13 11 10 12 11 10 10 9 7 7 7 7 7 7 6 8 10
18 18 18 18 18 18 18 18 17 17 17 17 17 18 18 18 17 17 16 14 13 12 12 11 10 9 9 9 11 11 10 11 11 9 8 7 7 8 8 7 8 8 9
18 18 18 18 18 18 18 18 18 18 17 17 18 18 19 19 19 18 17 16 15 14 13 12 12 12 10 7 7 9 9 10 12 10 9 8 8 9 9 8 6 6 7
17 18 18 18 18 19 19 18 18 18 18 18 18 18 19 18 18 18 17 17 16 15 14 14 14 13 13 10 7 6 7 8 10 11 10 9 9 10 10 8 8 7 6
17 18 18 19 19 19 19 19 19 18 18 18 18 18 19 18 17 16 16 17 16 15 15 14 14 14 15 15 13 10 8 9 9 10 11 11 11 12 11 10 10 9 5
17 18 18 18 19 19 20 19 19 19 18 18 18 18 18 19 15 13 16 18 16 15 15 13 13 14 16 14 15 14 12 12 12 11 11 11 12 13 14 14 13 11 7
17 17 18 18 20 20 20 19 19 17 16 16 16 17 16 16 13 14 15 18 17 15 14 14 14 12 13 14 13 13 12 11 12 12 12 11 10 12 15 14 13 10 11
17 17 18 19 19 20 20 18 16 15 15 15 15 15 14 13 12 13 14 14 14 14 14 14 14 14 11 11 11 11 11 10 11 14 13 10 8 9 13 13 14 14 10
17 18 18 18 19 19 19 17 15 13 13 13 13 13 12 11 10 13 13 11 12 12 12 12 12 12 11 14 12 11 11 10 9 11 12 11 9 11 17 17 16 15 11
17 18 18 18 18 18 16 15 13 12 12 11 11 11 10 9 9 12 12 11 10 10 9 10 10 14 13 14 11 10 9 8 9 11 11 11 11 11 15 14 14 15 15
16 17 18 17 16 14 15 14 12 11 11 10 9 8 6 6 8 11 13 11 7 9 9 8 6 15 14 13 11 8 6 7 9 10 11 11 11 11 11 11 10 9 7
16 16 16 17 15 14 13 13 11 9 8 7 6 5 4 5 7 10 12 10 9 8 7 2 6 12 12 11 11 9 9 9 10 11 12 11 11 12 12 10 10 10 10
16 16 15 14 14 13 11 10 9 8 7 6 5 4 3 4 6 9 10 11 11 11 9 7 10 11 10 7 9 10 9 9 10 11 11 10 10 12 12 12 13 12 11
15 14 14 13 13 12 11 9 8 7 5 6 6 5 4 4 4 3 5 7 8 9 9 9 9 10 10 10 10 9 8 8 9 10 10 10 12 12 13 13 14 13 11
13 13 11 11 10 10 10 8 2 3 3 4 5 6 3 2 3 1 2 4 3 2 7 9 10 10 10 10 9 8 8 8 8 9 10 11 13 14 14 14 14 15 15
14 13 11 11 10 10 9 9 7 1 4 2 1 2 4 4 2 3 4 4 4 7 9 9 9 9 9 8 7 7 7 7 7 7 9 12 14 15 16 16 15 15 14
14 13 11 10 10 9 9 9 8 7 3 1 3 3 1 1 3 4 6 8 7 8 10 9 8 8 8 7 6 6 6 5 6 7 9 12 15 16 17 17 16 16 16
13 10 10 10 10 9 8 8 7 7 4 2 1 4 4 4 4 5 9 7 7 8 8 7 6 7 7 6 5 5 5 5 6 7 10 12 14 16 17 17 16 18 17
11 13 11 10 10 8 7 7 7 6 4 2 1 1 3 3 3 4 5 5 5 6 6 6 6 6 6 6 5 5 5 5 7 7 9 12 13 15 17 18 17 17 16
11 11 11 10 8 8 7 6 6 5 4 3 2 3 3 2 2 4 4 4 4 5 5 5 5 5 5 5 5 5 5 5 7 9 10 12 14 14 15 15 16 15 14
10 10 9 8 8 7 7 6 5 4 4 3 1 2 3 4 2 2 3 3 4 4 4 5 5 4 4 5 5 5 5 6 8 10 11 12 13 14 15 15 15 14 13
10 10 9 8 7 7 6 5 4 3 3 2 1 1 2 2 1 2 2 3 3 3 3 3 3 3 3 3 4 5 5 6 8 10 12 14 14 13 14 14 15 16 15
10 10 10 9 8 7 6 6 5 4 3 3 1 0 1 2 2 3 3 3 3 3 3 3 3 3 4 4 4 4 5 6 8 10 13 14 15 14 13 14 14 16 15
10 10 9 8 8 7 6 5 5 4 3 2 2 1 0 2 2 2 2 2 2 2 2 2 2 4 6 7 6 6 7 6 5 9 12 13 15 15 15 16 14 15 14
10 10 9 8 7 7 6 5 4 4 3 3 3 1 1 1 1 0 0 1 1 2 2 3 4 6 8 7 9 10 9 7 6 4 10 13 15 15 16 15 17 15 15
Wind_Direction
315 314 311 308 306 302 295 290 287 283 280 271 260 254 249 241 232 225 234 231 235 242 248 253 251 250 243 231 224 220 217 221 226 201 178 163 167 155 126 105 89 81 76
314 312 309 307 305 302 299 298 294 286 279 273 266 258 251 246 239 233 234 234 232 234 235 240 250 250 247 242 232 222 216 215 220 215 194 183 175 158 132 117 102 87 82
313 310 308 307 307 305 304 300 296 290 283 275 267 260 254 250 246 239 236 237 235 235 233 229 232 237 254 250 242 232 221 214 219 219 206 182 167 152 136 120 108 100 91
311 309 308 308 307 306 304 301 297 292 286 278 270 262 255 249 245 242 236 234 235 235 232 230 227 219 226 245 257 250 238 222 213 217 209 189 172 166 158 149 135 118 103
310 309 308 309 308 305 302 300 298 294 287 281 274 265 256 249 242 237 236 232 230 234 233 229 225 216 209 209 226 251 261 242 219 212 209 199 182 173 176 170 148 129 103
308 307 308 306 304 302 301 298 296 293 290 284 276 268 258 249 239 226 229 236 232 231 235 232 224 208 206 203 206 215 238 252 237 220 213 208 195 186 180 168 155 155 137
305 304 305 305 303 303 301 298 296 293 291 287 281 272 261 253 246 221 215 231 231 230 231 230 229 212 196 203 201 205 218 237 252 253 237 225 205 190 180 176 177 173 146
304 305 307 309 307 304 301 297 295 293 290 286 282 276 266 253 233 215 205 223 230 228 227 225 226 222 201 198 198 201 210 218 229 243 250 249 237 198 184 179 159 126 116
305 308 310 310 307 304 301 300 299 294 291 286 283 276 266 250 223 202 200 218 223 226 226 223 220 220 195 186 208 210 212 217 219 228 242 258 277 203 173 159 150 144 138
309 309 309 307 305 305 304 303 300 295 291 286 282 275 263 243 204 188 197 217 220 223 222 223 220 223 187 181 213 221 221 219 215 214 223 230 225 182 167 172 169 162 149
309 307 307 306 307 306 307 307 303 298 294 288 284 276 261 236 190 182 195 219 224 224 225 220 214 182 181 188 216 230 232 229 221 219 215 211 204 188 182 182 179 173 164
307 306 308 309 309 310 310 309 307 303 298 293 289 278 254 215 189 183 188 213 252 243 237 232 204 165 178 190 209 223 221 230 229 221 215 203 193 184 180 175 168 162 154
306 305 307 310 311 311 310 310 310 308 304 300 294 277 248 204 176 173 184 199 218 239 241 205 146 161 177 195 212 210 214 226 227 221 215 203 186 171 160 144 123 105 101
307 307 308 310 312 316 314 312 315 315 313 308 301 284 244 204 190 185 189 195 202 220 230 192 172 182 214 225 198 204 221 225 225 224 214 192 166 157 155 150 143 134 126
310 308 308 309 313 316 316 317 321 331 334 311 306 294 256 217 180 169 215 210 216 215 208 204 204 200 207 213 218 218 219 219 221 223 207 180 164 158 155 153 151 149 148
312 310 309 310 312 315 316 319 258 271 319 298 294 302 306 33 75 154 252 287 306 206 209 210 210 211 213 215 218 217 218 219 217 216 202 175 164 159 155 156 158 157 157
311 308 306 306 310 315 317 319 326 260 174 153 9 318 303 327 295 250 234 227 215 198 217 221 217 216 218 220 220 220 222 218 209 205 193 171 163 159 157 158 160 160 160
313 306 300 300 306 312 315 319 323 331 342 118 128 87 20 288 243 216 189 186 193 207 222 221 216 218 220 223 219 216 223 214 201 195 183 169 163 159 159 160 162 162 162
315 310 307 304 305 312 316 320 325 330 343 16 96 124 113 124 137 162 186 211 202 201 215 222 221 221 222 219 217 216 218 208 192 185 175 165 162 159 159 160 161 162 163
315 310 307 304 307 319 325 326 332 339 350 8 10 82 146 178 159 167 201 217 212 208 216 224 228 228 222 213 206 207 203 196 180 178 170 161 159 158 157 157 159 162 166
317 316 309 301 314 330 333 332 337 344 352 358 21 54 1 256 183 182 195 205 212 213 215 226 227 225 216 199 194 194 190 184 172 167 162 155 155 154 154 155 159 163 166
322 320 321 320 327 334 336 333 341 346 348 349 348 145 189 251 225 191 197 207 217 221 217 225 230 224 210 191 177 176 182 173 163 157 155 150 149 150 151 154 159 165 168
328 328 327 325 326 328 324 335 351 352 348 346 333 272 219 235 228 228 228 222 221 223 214 217 223 206 184 164 160 168 172 161 157 153 150 147 147 149 151 156 161 163 167
333 335 335 334 333 337 346 345 354 4 2 351 352 245 228 234 237 237 243 243 240 220 202 206 203 174 164 154 150 152 155 155 156 153 149 147 147 147 149 153 159 164 167
340 339 339 340 341 343 348 353 1 14 20 9 24 24 269 246 237 230 232 230 227 210 202 197 171 159 156 154 145 137 133 136 149 151 149 146 145 146 149 154 158 161 162
343 343 342 343 346 346 351 359 4 16 35 38 39 37 35 6 21 31 123 151 171 189 194 181 164 148 148 147 133 128 128 132 138 151 147 145 145 147 150 152 153 157 158
Height
1476 1472 1468 1464 1462 1459 1457 1455 1453 1451 1450 1450 1450 1450 1450 1450 1450 1449 1450 1450 1450 1450 1451 1453 1455 1459 1463 1466 1468 1470 1472 1474 1477 1478 1479 1480 1480 1481 1482 1483 1483 1484 1486
1471 1466 1462 1458 1454 1451 1449 1447 1445 1443 1442 1441 1441 1441 1442 1443 1443 1444 1444 1445 1445 1445 1446 1447 1447 1450 1454 1458 1461 1464 1466 1469 1472 1474 1476 1477 1477 1479 1479 1480 1481 1482 1483
1465 1460 1456 1452 1448 1444 1441 1438 1436 1434 1432 1432 1431 1431 1432 1434 1435 1436 1438 1439 1439 1440 1440 1441 1442 1443 1445 1449 1453 1457 1460 1463 1466 1470 1471 1473 1475 1476 1476 1478 1479 1480 1481
1460 1455 1451 1446 1442 1438 1434 1431 1428 1425 1423 1422 1421 1421 1422 1423 1425 1428 1429 1431 1432 1434 1434 1435 1437 1437 1439 1440 1444 1448 1453 1457 1461 1464 1467 1469 1470 1472 1473 1475 1477 1479 1480
1455 1450 1445 1441 1436 1432 1428 1424 1420 1417 1414 1412 1411 1410 1411 1413 1415 1418 1421 1423 1425 1427 1428 1429 1431 1432 1433 1435 1437 1440 1445 1450 1454 1458 1461 1464 1466 1467 1470 1472 1474 1477 1479
1450 1445 1440 1435 1430 1425 1421 1417 1413 1409 1406 1403 1401 1400 1400 1402 1404 1407 1412 1415 1417 1419 1421 1423 1425 1426 1427 1429 1432 1434 1438 1442 1447 1452 1455 1458 1460 1463 1466 1469 1471 1474 1477
1446 1441 1435 1430 1425 1419 1414 1409 1405 1401 1397 1394 1392 1390 1389 1391 1394 1397 1402 1407 1410 1412 1414 1416 1419 1420 1422 1425 1426 1429 1433 1436 1440 1445 1449 1453 1456 1458 1461 1464 1468 1472 1474
1441 1436 1430 1425 1419 1413 1407 1402 1397 1393 1389 1385 1382 1381 1380 1381 1384 1388 1393 1398 1402 1405 1407 1410 1413 1415 1418 1420 1422 1425 1428 1430 1433 1438 1442 1447 1452 1455 1457 1461 1465 1468 1472
1436 1430 1425 1419 1412 1406 1400 1395 1390 1385 1381 1377 1374 1372 1371 1372 1375 1380 1385 1391 1395 1398 1401 1404 1406 1410 1412 1415 1418 1421 1423 1425 1428 1432 1437 1441 1446 1450 1453 1457 1460 1464 1468
1430 1425 1419 1412 1406 1400 1394 1388 1383 1379 1374 1371 1367 1365 1365 1366 1368 1373 1379 1384 1389 1392 1395 1397 1400 1404 1407 1410 1414 1416 1418 1420 1423 1427 1431 1435 1440 1444 1448 1451 1455 1459 1463
1424 1419 1413 1407 1401 1395 1388 1383 1378 1373 1369 1365 1362 1360 1359 1360 1363 1368 1373 1379 1383 1387 1389 1392 1395 1398 1401 1405 1408 1411 1413 1416 1419 1421 1425 1429 1434 1438 1442 1447 1451 1455 1459
1419 1413 1407 1402 1396 1390 1384 1378 1374 1369 1364 1361 1358 1356 1356 1357 1360 1364 1369 1374 1378 1382 1385 1387 1390 1393 1396 1399 1403 1405 1408 1411 1413 1416 1419 1422 1427 1431 1436 1442 1447 1451 1456
1413 1408 1402 1397 1391 1386 1380 1375 1370 1366 1362 1358 1356 1354 1354 1355 1357 1361 1365 1370 1374 1377 1381 1383 1385 1388 1391 1394 1397 1400 1402 1404 1407 1409 1412 1416 1421 1426 1432 1437 1442 1447 1453
1408 1403 1398 1393 1387 1382 1377 1372 1368 1363 1360 1357 1354 1353 1353 1354 1356 1359 1362 1366 1370 1373 1376 1378 1380 1383 1386 1389 1392 1393 1395 1398 1400 1403 1407 1411 1415 1421 1426 1432 1437 1443 1449
1404 1399 1394 1389 1384 1379 1374 1370 1366 1362 1358 1355 1353 1352 1352 1353 1355 1357 1360 1364 1367 1370 1372 1374 1376 1379 1381 1384 1386 1388 1389 1391 1393 1397 1401 1405 1409 1415 1422 1428 1434 1440 1446
1400 1395 1390 1386 1381 1377 1372 1368 1364 1360 1357 1354 1352 1351 1351 1352 1353 1355 1358 1361 1363 1366 1368 1370 1372 1374 1377 1379 1381 1382 1384 1385 1387 1390 1394 1398 1404 1410 1417 1424 1431 1437 1445
1396 1391 1387 1383 1379 1375 1370 1366 1363 1359 1356 1353 1351 1351 1350 1351 1352 1353 1355 1358 1360 1362 1365 1367 1369 1371 1372 1374 1376 1377 1378 1380 1382 1385 1389 1393 1399 1406 1413 1420 1428 1436 1444
1393 1388 1384 1381 1377 1373 1369 1365 1362 1359 1356 1354 1352 1350 1350 1350 1351 1352 1354 1356 1358 1359 1362 1364 1366 1367 1369 1370 1371 1372 1374 1375 1377 1380 1384 1389 1395 1402 1409 1417 1425 1434 1442
1391 1386 1382 1378 1375 1371 1368 1364 1361 1358 1355 1353 1352 1351 1350 1350 1350 1351 1352 1354 1356 1357 1359 1361 1363 1364 1365 1366 1367 1368 1369 1370 1373 1376 1380 1385 1391 1398 1406 1415 1424 1433 1441
1388 1384 1380 1376 1373 1370 1367 1363 1360 1357 1355 1354 1352 1352 1351 1350 1351 1351 1352 1353 1355 1356 1358 1359 1360 1361 1362 1363 1364 1365 1366 1367 1370 1373 1377 1382 1389 1397 1405 1414 1423 1431 1440
1387 1382 1378 1375 1373 1370 1366 1363 1360 1357 1355 1354 1353 1352 1351 1351 1351 1351 1352 1353 1354 1355 1356 1357 1358 1359 1359 1360 1361 1362 1363 1365 1368 1371 1376 1382 1389 1396 1405 1414 1422 1431 1438
1386 1382 1378 1375 1372 1369 1366 1363 1360 1358 1356 1354 1353 1352 1351 1352 1352 1352 1352 1353 1354 1354 1355 1356 1356 1357 1357 1358 1359 1360 1362 1364 1367 1371 1376 1382 1389 1398 1406 1414 1423 1430 1437
1385 1381 1378 1375 1372 1369 1366 1364 1361 1359 1356 1355 1353 1352 1352 1352 1352 1352 1352 1353 1353 1353 1353 1354 1354 1355 1355 1356 1357 1359 1361 1363 1367 1371 1377 1384 1391 1399 1407 1415 1423 1430 1436
1385 1381 1378 1375 1372 1370 1367 1364 1362 1360 1357 1356 1354 1353 1352 1352 1352 1352 1352 1352 1352 1352 1352 1353 1353 1353 1354 1355 1357 1359 1362 1365 1369 1375 1381 1388 1395 1403 1410 1417 1424 1430 1436
1385 1381 1378 1375 1373 1370 1368 1366 1364 1361 1359 1357 1356 1354 1354 1353 1353 1352 1352 1352 1352 1352 1352 1352 1353 1353 1354 1356 1358 1362 1365 1369 1374 1380 1387 1393 1399 1405 1411 1418 1424 1430 1435
1385 1381 1379 1376 1374 1372 1369 1368 1366 1364 1362 1360 1358 1357 1356 1355 1354 1354 1353 1352 1352 1351 1352 1353 1353 1354 1356 1358 1361 1365 1369 1374 1380 1385 1391 1397 1402 1408 1414 1419 1425 1430 1435